Regional Weather Roundup
Issued by NWS

Home | Current Version | Previous Version | Graphics & Text | Print | Product List | Glossary On
Versions: 1 2 3 4 5 6 7 8 9 10 11 12 13 14 15 16 17 18 19 20 21 22 23 24 25 26 27 28 29 30 31 32 33 34 35 36 37 38 39 40 41 42 43 44 45 46 47 48 49 50
000
ASUS43 KFSD 192210
RWRSD

WEATHER ROUNDUP FOR SOUTH DAKOTA
NATIONAL WEATHER SERVICE SIOUX FALLS SD
500 PM CDT SUN OCT 19 2014

NOTE: "FAIR" INDICATES FEW OR NO CLOUDS BELOW 12,000 FEET WITH NO
SIGNIFICANT WEATHER AND/OR OBSTRUCTIONS TO VISIBILITY.


SDZ001>005-009-010-012>017-192300-
NORTHWEST AND NORTH CENTRAL SOUTH DAKOTA

CITY           SKY/WX    TMP DP  RH WIND       PRES   REMARKS
BUFFALO          N/A     70  34  26 NW12      29.97R
FAITH            N/A     71  35  26 NW16G24   29.99S
MOBRIDGE       SUNNY     75  38  26 NW15      29.92R
$$

SDZ012>016-024>037-041>051-057-063-072>074-192300-
SOUTHWEST AND SOUTH CENTRAL SOUTH DAKOTA

CITY           SKY/WX    TMP DP  RH WIND       PRES   REMARKS
RAPID CTY ARPT SUNNY     72  40  31 N9        30.03S
PIERRE         SUNNY     75  39  27 NW16G28   29.93R
CUSTER         SUNNY     68  32  26 W12       30.12R
ELLSWORTH AFB  SUNNY     71  41  33 N8        30.04R
PHILIP         SUNNY     76  40  27 N15       29.97S
PINE RIDGE     SUNNY     74  37  26 CALM      30.04R
SPEARFISH      FAIR      68  39  34 N6        30.07S
WINNER         FAIR      78  37  22 N10       29.96R
$$

SDZ004>011-016>023-039-040-192300-
NORTHEAST SOUTH DAKOTA

CITY           SKY/WX    TMP DP  RH WIND       PRES   REMARKS
ABERDEEN       SUNNY     74  40  29 NW18      29.90R
WATERTOWN      SUNNY     70  42  36 NW10      29.88S
SISSETON         N/A     72  38  29 N21G29    29.84R
$$

SDZ017-020-022-023-036>040-048>070-192300-
SOUTHEAST SOUTH DAKOTA

CITY           SKY/WX    TMP DP  RH WIND       PRES   REMARKS
SIOUX FALLS    SUNNY     73  42  32 NW13      29.88S
HURON          SUNNY     77  36  22 N17       29.88R
CHAMBERLAIN    SUNNY     75  37  24 NW16G24   29.93R
MITCHELL       SUNNY     79  38  22 N14       29.89S
YANKTON        SUNNY     73  46  38 NW10      29.89S
$$

ABBREVIATIONS USED IN REMARKS
   TC - TEMPERATURE IN CELSIUS
  WCI - WIND CHILL INDEX
   HX - HEAT INDEX
  VSB - VISIBILITY



USA.gov is the U.S. government's official web portal to all federal, state and local government web resources and services.